Location: Acts Church of Fort Worth
(32.6786°N, 97.2668°W)
Time: 21:48:26
(UTC+00:00)

Cosmos 1869 Rocket - Pass Details

Date: 18 January 2026
Orbit: 597 x 626 km, 82.5° (Epoch: 10 February)

Event Time Altitude Azimuth Distance (km) Brightness Sun altitude
Rises 00:23:16 0° 4° (N) 2,883 6.7 -7.7°
Reaches altitude 10° 00:25:41 10° 14° (NNE) 1,969 5.8 -8.2°
Maximum altitude 00:29:38 33° 79° (E) 1,025 4.2 -9.0°
Drops below altitude 10° 00:33:31 10° 144° (SE) 1,942 5.9 -9.8°
Sets 00:35:52 0° 154° (SSE) 2,837 6.9 -10.2°
